Find Starlink 11523

NORAD ID: 62565 Int'l Des: 2025-006 Owner: SPXS Country: US Constellation: starlink operational
別名: STARLINK-11523 [DTC] celestrak
LEOCIRCULAR

現在のビュー

3D地球を読み込み中...

About Starlink 11523

Starlink 11523 (NORAD 62565) is a starlink constellation satellite (v2 mini d2c) launched Jan 10, 2025 by SPXS of US. It operates in LEO, CIRCULAR orbit with a mass of 960.00 kg.

次回通過

Passes for default location (London). Set your location on the main map for personalized predictions.

高度履歴

Loading altitude history...

軌道要素

1 62565U 25006M 26263.72398928 .00183192 00000-0 13906-2 0 9999
2 62565 43.0015 44.5216 0001976 318.1578 41.9139 15.70999156 97271
Epoch: Sep 20, 2026 • Age: 14 hours

現在のステータス

高度 353.7 km
遠地点 / 近地点 N/A
速度 7.70 km/s
衛星直下点 11.45°N, 54.34°W
打ち上げ日 Jan 10, 2025
運用期間 1.6 years
タイプ internet

技術仕様

分類 Payload
質量 960.00 kg
乾燥質量 910.00 kg
長さ 0.30 m
スパン 29.00 m
形状 ? Box + pan
製造者 SPXS
バスタイプ Starlink V2MD
フェーズステータス In Orbit
所有者/国 SPXS/US

Most Searched